EXS195 EGNX-LSZH

Flight info

Callsign EXS195
Flight time 1h 24m
Altitude 23000
Route SAPCO UY53 DTY M605 SILVA/N0451F370 UM605 BENSU Q70 BIG UL9 KONAN UL607 KOK DCT FERDI DCT REMBA M624 RITAX DCT SUTAL DCT GTQ DCT BAMEV DCT BLM
Aircraft B738/M-SDE2E3FGHIRWXY/LB1

Departure

Time 2026-04-26 08:19
Airport East Midlands Airport (EGNX)

Arrival

Time 2026-04-26 09:43
Airport Zürich Airport (LSZH)
Time Latitude Longitude Altitude Speed Heading
2026-04-26 08:01 52.82731 -1.32870 300 ft 0 kts 178°
2026-04-26 08:11 52.82744 -1.32871 302 ft 2 kts 178°
2026-04-26 08:11 52.82760 -1.32872 301 ft 2 kts 178°
2026-04-26 08:11 52.82775 -1.32873 298 ft 2 kts 162°
2026-04-26 08:11 52.82786 -1.32881 298 ft 1 kts 130°
2026-04-26 08:12 52.82792 -1.32895 301 ft 2 kts 102°
2026-04-26 08:12 52.82793 -1.32913 300 ft 1 kts 87°
2026-04-26 08:12 52.82793 -1.32932 300 ft 0 kts 88°
2026-04-26 08:15 52.82800 -1.32895 300 ft 8 kts 64°
2026-04-26 08:15 52.82867 -1.32854 300 ft 13 kts 357°
2026-04-26 08:15 52.82928 -1.32933 302 ft 13 kts 273°
2026-04-26 08:15 52.82926 -1.33083 301 ft 15 kts 268°
2026-04-26 08:16 52.82924 -1.33285 303 ft 20 kts 268°
2026-04-26 08:16 52.82919 -1.33538 306 ft 26 kts 267°
2026-04-26 08:16 52.82912 -1.33837 304 ft 25 kts 268°
2026-04-26 08:16 52.82907 -1.34118 301 ft 24 kts 268°
2026-04-26 08:17 52.82908 -1.34381 304 ft 22 kts 269°
2026-04-26 08:17 52.82903 -1.34609 302 ft 19 kts 267°
2026-04-26 08:17 52.82900 -1.34823 305 ft 17 kts 269°
2026-04-26 08:17 52.82971 -1.34937 304 ft 15 kts 359°
2026-04-26 08:18 52.83060 -1.34886 304 ft 15 kts 71°
2026-04-26 08:18 52.83066 -1.34629 302 ft 50 kts 89°
2026-04-26 08:18 52.83084 -1.33552 310 ft 136 kts 90°
2026-04-26 08:18 52.83085 -1.31770 896 ft 164 kts 92°
2026-04-26 08:19 52.83048 -1.29764 1749 ft 194 kts 98°
2026-04-26 08:19 52.82912 -1.27453 2172 ft 207 kts 97°
2026-04-26 08:19 52.82780 -1.24966 2561 ft 228 kts 101°
2026-04-26 08:19 52.82166 -1.22474 2956 ft 243 kts 128°
2026-04-26 08:20 52.81041 -1.20299 3411 ft 252 kts 135°
2026-04-26 08:20 52.79830 -1.18192 3872 ft 254 kts 135°
2026-04-26 08:20 52.78600 -1.16098 4322 ft 253 kts 140°
2026-04-26 08:20 52.77063 -1.14845 4755 ft 248 kts 174°
2026-04-26 08:21 52.75367 -1.15244 5230 ft 253 kts 205°
2026-04-26 08:21 52.73908 -1.16880 5716 ft 256 kts 218°
2026-04-26 08:21 52.72512 -1.18746 6175 ft 259 kts 219°
2026-04-26 08:21 52.71101 -1.20627 6584 ft 262 kts 218°
2026-04-26 08:22 52.69555 -1.22260 7030 ft 265 kts 209°
2026-04-26 08:22 52.67910 -1.23671 7446 ft 271 kts 207°
2026-04-26 08:22 52.66208 -1.25094 8263 ft 275 kts 207°
2026-04-26 08:22 52.64474 -1.26560 8897 ft 285 kts 208°
2026-04-26 08:23 52.62725 -1.28063 9449 ft 283 kts 208°
2026-04-26 08:23 52.61013 -1.29552 9982 ft 281 kts 209°
2026-04-26 08:23 52.59282 -1.31067 10509 ft 284 kts 209°
2026-04-26 08:23 52.57521 -1.32611 11026 ft 288 kts 209°
2026-04-26 08:24 52.55740 -1.34152 11546 ft 291 kts 205°
2026-04-26 08:24 52.53765 -1.34894 11985 ft 299 kts 182°
2026-04-26 08:24 52.51636 -1.34215 12169 ft 327 kts 161°
2026-04-26 08:24 52.49436 -1.32787 12386 ft 351 kts 159°
2026-04-26 08:25 52.47138 -1.31191 12902 ft 363 kts 158°
2026-04-26 08:25 52.44801 -1.29551 13731 ft 367 kts 158°
2026-04-26 08:25 52.42443 -1.27909 14504 ft 370 kts 159°
2026-04-26 08:25 52.40059 -1.26267 15236 ft 374 kts 159°
2026-04-26 08:26 52.37645 -1.24621 15930 ft 378 kts 159°
2026-04-26 08:26 52.35206 -1.22967 16624 ft 381 kts 159°
2026-04-26 08:26 52.32739 -1.21302 17302 ft 385 kts 159°
2026-04-26 08:26 52.30246 -1.19623 17982 ft 389 kts 159°
2026-04-26 08:27 52.27756 -1.17948 18629 ft 394 kts 159°
2026-04-26 08:27 52.25206 -1.16234 19191 ft 398 kts 159°
2026-04-26 08:27 52.22628 -1.14503 19738 ft 402 kts 160°
2026-04-26 08:27 52.20027 -1.12760 20285 ft 406 kts 160°
2026-04-26 08:28 52.17376 -1.11150 20843 ft 407 kts 166°
2026-04-26 08:28 52.14608 -1.10133 21386 ft 410 kts 171°
2026-04-26 08:28 52.11789 -1.09264 21839 ft 415 kts 172°
2026-04-26 08:28 52.08924 -1.08395 22329 ft 420 kts 172°
2026-04-26 08:29 52.06044 -1.07495 22844 ft 423 kts 171°
2026-04-26 08:29 52.03173 -1.06571 23339 ft 427 kts 171°
2026-04-26 08:29 52.00246 -1.05619 23821 ft 431 kts 171°
2026-04-26 08:29 51.97293 -1.04648 24227 ft 434 kts 171°
2026-04-26 08:30 51.94322 -1.03660 24657 ft 437 kts 171°
2026-04-26 08:30 51.91335 -1.02665 25089 ft 439 kts 171°
2026-04-26 08:30 51.88334 -1.01669 25499 ft 442 kts 171°
2026-04-26 08:30 51.85311 -1.00670 25893 ft 444 kts 171°
2026-04-26 08:31 51.82270 -0.99677 26276 ft 447 kts 172°
2026-04-26 08:31 51.79209 -0.98696 26670 ft 449 kts 172°
2026-04-26 08:31 51.76128 -0.97714 27057 ft 452 kts 172°
2026-04-26 08:31 51.73033 -0.96728 27429 ft 454 kts 172°
2026-04-26 08:32 51.69921 -0.95733 27794 ft 457 kts 172°
2026-04-26 08:32 51.66792 -0.94734 28132 ft 459 kts 172°
2026-04-26 08:32 51.63649 -0.93729 28472 ft 462 kts 171°
2026-04-26 08:32 51.60595 -0.92026 28748 ft 472 kts 154°
2026-04-26 08:33 51.57972 -0.88878 29071 ft 480 kts 137°
2026-04-26 08:33 51.55954 -0.84675 29386 ft 486 kts 120°
2026-04-26 08:33 51.54568 -0.79705 29734 ft 489 kts 113°
2026-04-26 08:33 51.53307 -0.74623 30000 ft 491 kts 112°
2026-04-26 08:34 51.52062 -0.69510 30336 ft 493 kts 112°
2026-04-26 08:34 51.50806 -0.64404 30704 ft 491 kts 112°
2026-04-26 08:34 51.49529 -0.59312 31116 ft 489 kts 113°
2026-04-26 08:34 51.48238 -0.54256 31482 ft 489 kts 113°
2026-04-26 08:35 51.46939 -0.49223 31797 ft 489 kts 113°
2026-04-26 08:35 51.45629 -0.44189 32131 ft 489 kts 113°
2026-04-26 08:35 51.44316 -0.39156 32480 ft 488 kts 113°
2026-04-26 08:35 51.43007 -0.34146 32818 ft 487 kts 113°
2026-04-26 08:36 51.41696 -0.29134 33140 ft 487 kts 113°
2026-04-26 08:36 51.40387 -0.24137 33474 ft 487 kts 113°
2026-04-26 08:36 51.39073 -0.19133 33820 ft 487 kts 113°
2026-04-26 08:36 51.37763 -0.14148 34136 ft 486 kts 113°
2026-04-26 08:37 51.36447 -0.09154 34433 ft 486 kts 113°
2026-04-26 08:37 51.35131 -0.04168 34713 ft 486 kts 113°
2026-04-26 08:37 51.33816 0.00811 35008 ft 485 kts 112°
2026-04-26 08:37 51.32712 0.05892 35274 ft 484 kts 103°
2026-04-26 08:38 51.32023 0.11160 35581 ft 482 kts 100°
2026-04-26 08:38 51.31429 0.16434 35878 ft 481 kts 99°
2026-04-26 08:38 51.30833 0.21702 36128 ft 481 kts 100°
2026-04-26 08:38 51.30204 0.26947 36394 ft 480 kts 100°
2026-04-26 08:39 51.29558 0.32118 36587 ft 479 kts 101°
2026-04-26 08:39 51.28911 0.37324 36874 ft 478 kts 100°
2026-04-26 08:39 51.28279 0.42532 37126 ft 477 kts 100°
2026-04-26 08:39 51.27651 0.47735 37257 ft 479 kts 100°
2026-04-26 08:40 51.26583 0.56521 37256 ft 481 kts 100°
2026-04-26 08:40 51.25237 0.66940 37258 ft 476 kts 101°
2026-04-26 08:41 51.23879 0.77260 37285 ft 473 kts 100°
2026-04-26 08:41 51.22594 0.87540 37342 ft 472 kts 100°
2026-04-26 08:42 51.21317 0.97668 37342 ft 471 kts 100°
2026-04-26 08:42 51.19989 1.07965 37345 ft 471 kts 101°
2026-04-26 08:43 51.18644 1.18182 37343 ft 473 kts 101°
2026-04-26 08:43 51.17283 1.28494 37344 ft 474 kts 101°
2026-04-26 08:44 51.16053 1.38818 37337 ft 474 kts 94°
2026-04-26 08:44 51.15543 1.49294 37343 ft 475 kts 91°
2026-04-26 08:45 51.15122 1.59795 37338 ft 476 kts 92°
2026-04-26 08:45 51.14630 1.70315 37341 ft 476 kts 92°
2026-04-26 08:46 51.14099 1.80752 37344 ft 476 kts 93°
2026-04-26 08:46 51.13556 1.91274 37344 ft 476 kts 93°
2026-04-26 08:47 51.13007 2.01779 37345 ft 475 kts 93°
2026-04-26 08:47 51.12449 2.12267 37346 ft 475 kts 93°
2026-04-26 08:48 51.11884 2.22725 37344 ft 474 kts 93°
2026-04-26 08:48 51.11312 2.33168 37344 ft 473 kts 93°
2026-04-26 08:49 51.10732 2.43584 37345 ft 472 kts 93°
2026-04-26 08:49 51.10145 2.53987 37345 ft 472 kts 93°
2026-04-26 08:50 51.09524 2.64380 37344 ft 472 kts 96°
2026-04-26 08:50 51.07952 2.74534 37341 ft 474 kts 105°
2026-04-26 08:51 51.05103 2.89578 37348 ft 473 kts 105°
2026-04-26 08:52 51.03241 2.99613 37346 ft 474 kts 105°
2026-04-26 08:52 51.01407 3.09595 37344 ft 474 kts 105°
2026-04-26 08:53 50.99553 3.19648 37338 ft 474 kts 105°
2026-04-26 08:53 50.97689 3.29692 37334 ft 474 kts 106°
2026-04-26 08:54 50.95814 3.39732 37331 ft 474 kts 106°
2026-04-26 08:54 50.93934 3.49750 37330 ft 474 kts 106°
2026-04-26 08:55 50.92044 3.59770 37329 ft 474 kts 106°
2026-04-26 08:55 50.90154 3.69717 37333 ft 474 kts 106°
2026-04-26 08:56 50.88242 3.79701 37335 ft 474 kts 106°
2026-04-26 08:56 50.86319 3.89697 37329 ft 474 kts 107°
2026-04-26 08:57 50.84390 3.99685 37324 ft 474 kts 107°
2026-04-26 08:57 50.82454 4.09654 37324 ft 474 kts 107°
2026-04-26 08:58 50.80509 4.19619 37320 ft 473 kts 107°
2026-04-26 08:58 50.78558 4.29558 37318 ft 473 kts 107°
2026-04-26 08:59 50.76615 4.39411 37321 ft 472 kts 107°
2026-04-26 08:59 50.74654 4.49303 37317 ft 471 kts 107°
2026-04-26 09:00 50.72688 4.59170 37326 ft 471 kts 107°
2026-04-26 09:00 50.70714 4.69031 37322 ft 471 kts 107°
2026-04-26 09:01 50.68737 4.78864 37323 ft 470 kts 108°
2026-04-26 09:01 50.66530 4.88551 37314 ft 470 kts 117°
2026-04-26 09:02 50.62805 4.96940 37314 ft 467 kts 135°
2026-04-26 09:02 50.58155 5.04087 37321 ft 467 kts 137°
2026-04-26 09:03 50.53474 5.11162 37313 ft 467 kts 137°
2026-04-26 09:03 50.48813 5.18290 37315 ft 467 kts 137°
2026-04-26 09:04 50.44165 5.25439 37318 ft 468 kts 136°
2026-04-26 09:04 50.39540 5.32541 37310 ft 468 kts 136°
2026-04-26 09:05 50.34879 5.39673 37305 ft 468 kts 137°
2026-04-26 09:05 50.30206 5.46801 37290 ft 469 kts 137°
2026-04-26 09:06 50.25534 5.53907 37289 ft 469 kts 137°
2026-04-26 09:06 50.20845 5.61018 37273 ft 469 kts 137°
2026-04-26 09:07 50.16161 5.68102 37284 ft 468 kts 137°
2026-04-26 09:07 50.11477 5.75168 37266 ft 468 kts 137°
2026-04-26 09:08 50.06690 5.81920 37265 ft 466 kts 146°
2026-04-26 09:08 50.01219 5.87281 37270 ft 464 kts 150°
2026-04-26 09:09 49.95695 5.92480 37273 ft 465 kts 150°
2026-04-26 09:09 49.90181 5.97736 37264 ft 465 kts 150°
2026-04-26 09:10 49.84682 6.03021 37265 ft 464 kts 150°
2026-04-26 09:10 49.79224 6.08266 37263 ft 464 kts 150°
2026-04-26 09:11 49.73735 6.13522 37266 ft 464 kts 150°
2026-04-26 09:11 49.68245 6.18763 37269 ft 464 kts 150°
2026-04-26 09:12 49.62746 6.23998 37266 ft 463 kts 150°
2026-04-26 09:12 49.57252 6.29216 37266 ft 463 kts 150°
2026-04-26 09:13 49.51762 6.34417 37264 ft 463 kts 150°
2026-04-26 09:13 49.46303 6.39514 37265 ft 461 kts 154°
2026-04-26 09:14 49.40487 6.43643 37265 ft 460 kts 159°
2026-04-26 09:14 49.34598 6.47487 37260 ft 460 kts 159°
2026-04-26 09:15 49.28724 6.51383 37252 ft 460 kts 158°
2026-04-26 09:15 49.22869 6.55324 37262 ft 459 kts 158°
2026-04-26 09:16 49.17011 6.59271 37258 ft 460 kts 158°
2026-04-26 09:16 49.11153 6.63206 37258 ft 460 kts 158°
2026-04-26 09:17 49.05294 6.67129 37263 ft 460 kts 158°
2026-04-26 09:17 48.99470 6.71018 37255 ft 460 kts 158°
2026-04-26 09:18 48.93564 6.74736 37272 ft 459 kts 161°
2026-04-26 09:18 48.87601 6.78208 37252 ft 459 kts 161°
2026-04-26 09:19 48.81642 6.81673 37248 ft 459 kts 161°
2026-04-26 09:19 48.75699 6.85162 37242 ft 459 kts 161°
2026-04-26 09:20 48.69735 6.88674 37249 ft 458 kts 161°
2026-04-26 09:20 48.63795 6.92167 37242 ft 458 kts 161°
2026-04-26 09:20 48.60804 6.93921 36749 ft 464 kts 161°
2026-04-26 09:21 48.57801 6.95680 36182 ft 461 kts 161°
2026-04-26 09:21 48.54816 6.97426 35521 ft 460 kts 161°
2026-04-26 09:21 48.51841 6.99165 34832 ft 457 kts 161°
2026-04-26 09:21 48.48889 7.00888 34134 ft 454 kts 161°
2026-04-26 09:22 48.45945 7.02605 33342 ft 452 kts 161°
2026-04-26 09:22 48.43057 7.04286 32587 ft 449 kts 161°
2026-04-26 09:22 48.40146 7.05978 31846 ft 447 kts 161°
2026-04-26 09:22 48.37254 7.07657 31081 ft 445 kts 161°
2026-04-26 09:23 48.34367 7.09331 30304 ft 443 kts 161°
2026-04-26 09:23 48.31513 7.10985 29657 ft 435 kts 161°
2026-04-26 09:23 48.28711 7.12607 29070 ft 430 kts 161°
2026-04-26 09:23 48.25894 7.14233 28523 ft 439 kts 161°
2026-04-26 09:24 48.23005 7.15894 27926 ft 450 kts 161°
2026-04-26 09:24 48.20110 7.17563 27339 ft 440 kts 161°
2026-04-26 09:24 48.17282 7.19194 26759 ft 432 kts 161°
2026-04-26 09:24 48.14488 7.20802 26183 ft 428 kts 161°
2026-04-26 09:25 48.11721 7.22393 25626 ft 424 kts 161°
2026-04-26 09:25 48.09896 7.23441 25266 ft 422 kts 161°
2026-04-26 09:25 48.07163 7.25008 24713 ft 419 kts 161°
2026-04-26 09:25 48.04445 7.26564 24166 ft 416 kts 161°
2026-04-26 09:26 48.00877 7.28603 23374 ft 413 kts 161°
2026-04-26 09:26 47.99062 7.29640 22940 ft 412 kts 161°
2026-04-26 09:26 47.96429 7.31142 22372 ft 409 kts 161°
2026-04-26 09:26 47.93777 7.32655 21813 ft 406 kts 161°
2026-04-26 09:27 47.91147 7.34155 21257 ft 403 kts 161°
2026-04-26 09:27 47.88536 7.35640 20694 ft 400 kts 161°
2026-04-26 09:27 47.85960 7.37104 20155 ft 393 kts 161°
2026-04-26 09:27 47.83425 7.38541 19637 ft 387 kts 161°
2026-04-26 09:28 47.80920 7.39967 19114 ft 382 kts 160°
2026-04-26 09:28 47.78448 7.41379 18589 ft 380 kts 160°
2026-04-26 09:28 47.75990 7.42782 18019 ft 377 kts 160°
2026-04-26 09:28 47.73539 7.44181 17468 ft 379 kts 160°
2026-04-26 09:29 47.71055 7.45595 16914 ft 386 kts 160°
2026-04-26 09:29 47.68540 7.47024 16370 ft 384 kts 160°
2026-04-26 09:29 47.66074 7.48453 15838 ft 376 kts 156°
2026-04-26 09:29 47.63950 7.50627 15310 ft 370 kts 135°
2026-04-26 09:30 47.62440 7.53649 14823 ft 363 kts 116°
2026-04-26 09:30 47.61519 7.57105 14352 ft 356 kts 109°
2026-04-26 09:30 47.60737 7.60585 13815 ft 355 kts 107°
2026-04-26 09:30 47.59967 7.64050 13276 ft 353 kts 108°
2026-04-26 09:31 47.59177 7.67510 12782 ft 358 kts 108°
2026-04-26 09:31 47.58356 7.71030 12330 ft 360 kts 108°
2026-04-26 09:31 47.57556 7.74406 12124 ft 346 kts 108°
2026-04-26 09:31 47.56775 7.77708 11727 ft 333 kts 108°
2026-04-26 09:32 47.56025 7.80887 11384 ft 321 kts 108°
2026-04-26 09:32 47.55301 7.83954 11048 ft 310 kts 108°
2026-04-26 09:32 47.54601 7.86914 10720 ft 301 kts 108°
2026-04-26 09:32 47.53919 7.89801 10381 ft 293 kts 108°
2026-04-26 09:33 47.53254 7.92603 10078 ft 285 kts 108°
2026-04-26 09:33 47.52609 7.95334 9765 ft 279 kts 108°
2026-04-26 09:33 47.51973 7.98008 9450 ft 272 kts 108°
2026-04-26 09:33 47.51352 8.00615 9163 ft 263 kts 108°
2026-04-26 09:34 47.50929 8.03173 8860 ft 252 kts 88°
2026-04-26 09:34 47.51295 8.05618 8582 ft 239 kts 64°
2026-04-26 09:34 47.52134 8.07710 8374 ft 234 kts 55°
2026-04-26 09:34 47.53063 8.09658 8115 ft 231 kts 54°
2026-04-26 09:35 47.53997 8.11588 7713 ft 231 kts 54°
2026-04-26 09:35 47.54923 8.13530 7386 ft 229 kts 55°
2026-04-26 09:35 47.55840 8.15464 7057 ft 228 kts 55°
2026-04-26 09:35 47.56730 8.17363 6705 ft 227 kts 56°
2026-04-26 09:36 47.57634 8.19295 6370 ft 224 kts 56°
2026-04-26 09:36 47.58513 8.21147 6243 ft 219 kts 55°
2026-04-26 09:36 47.59374 8.22995 6110 ft 217 kts 57°
2026-04-26 09:36 47.60067 8.24943 5942 ft 211 kts 66°
2026-04-26 09:37 47.60656 8.26929 5669 ft 207 kts 66°
2026-04-26 09:37 47.61237 8.28837 5457 ft 200 kts 68°
2026-04-26 09:37 47.61803 8.30708 5271 ft 199 kts 66°
2026-04-26 09:37 47.62198 8.32643 5091 ft 197 kts 88°
2026-04-26 09:38 47.61883 8.34611 4807 ft 201 kts 118°
2026-04-26 09:38 47.60982 8.36175 4623 ft 202 kts 135°
2026-04-26 09:38 47.59956 8.37560 4369 ft 195 kts 135°
2026-04-26 09:38 47.58984 8.38877 4176 ft 185 kts 134°
2026-04-26 09:39 47.58056 8.40144 4005 ft 179 kts 136°
2026-04-26 09:39 47.57112 8.41432 3678 ft 189 kts 134°
2026-04-26 09:39 47.56191 8.42691 3576 ft 179 kts 134°
2026-04-26 09:39 47.55247 8.43980 3250 ft 184 kts 133°
2026-04-26 09:40 47.54345 8.45223 3022 ft 175 kts 134°
2026-04-26 09:40 47.53503 8.46374 2822 ft 157 kts 135°
2026-04-26 09:40 47.52752 8.47414 2692 ft 138 kts 132°
2026-04-26 09:40 47.52042 8.48372 2458 ft 140 kts 134°
2026-04-26 09:41 47.51327 8.49342 2295 ft 137 kts 135°
2026-04-26 09:41 47.50622 8.50309 2145 ft 138 kts 134°
2026-04-26 09:41 47.49921 8.51273 1897 ft 135 kts 133°
2026-04-26 09:41 47.49237 8.52185 1679 ft 130 kts 133°
2026-04-26 09:42 47.48566 8.53112 1524 ft 136 kts 133°
2026-04-26 09:42 47.47875 8.54063 1404 ft 130 kts 133°
2026-04-26 09:42 47.47285 8.54872 1402 ft 98 kts 137°
2026-04-26 09:42 47.46911 8.55380 1395 ft 61 kts 137°
2026-04-26 09:43 47.46625 8.55771 1400 ft 47 kts 137°
2026-04-26 09:43 47.46398 8.55949 1404 ft 26 kts 166°
2026-04-26 09:43 47.46327 8.55973 1398 ft 9 kts 168°
2026-04-26 09:43 47.46264 8.55993 1406 ft 9 kts 167°
2026-04-26 09:44 47.46176 8.56046 1402 ft 17 kts 146°
2026-04-26 09:44 47.46092 8.56156 1403 ft 16 kts 136°
2026-04-26 09:44 47.46013 8.56267 1404 ft 15 kts 137°
2026-04-26 09:44 47.45928 8.56311 1402 ft 12 kts 187°
2026-04-26 09:45 47.45845 8.56283 1401 ft 13 kts 217°
2026-04-26 09:45 47.45827 8.56164 1402 ft 12 kts 274°
2026-04-26 09:45 47.45835 8.56038 1404 ft 13 kts 275°
2026-04-26 09:45 47.45846 8.55901 1397 ft 14 kts 277°
2026-04-26 09:46 47.45857 8.55764 1398 ft 13 kts 275°
2026-04-26 09:46 47.45866 8.55630 1399 ft 13 kts 275°
2026-04-26 09:46 47.45875 8.55482 1393 ft 16 kts 275°
2026-04-26 09:46 47.45887 8.55319 1395 ft 15 kts 277°
2026-04-26 09:47 47.45898 8.55184 1393 ft 13 kts 276°
2026-04-26 09:47 47.45866 8.55076 1403 ft 12 kts 203°
2026-04-26 09:47 47.45785 8.55102 1394 ft 12 kts 155°
2026-04-26 09:47 47.45692 8.55167 1399 ft 16 kts 154°
2026-04-26 09:48 47.45594 8.55235 1400 ft 15 kts 155°
2026-04-26 09:48 47.45500 8.55301 1400 ft 15 kts 155°
2026-04-26 09:48 47.45401 8.55370 1404 ft 18 kts 155°
2026-04-26 09:48 47.45281 8.55453 1398 ft 19 kts 155°
2026-04-26 09:49 47.45172 8.55526 1404 ft 17 kts 154°
2026-04-26 09:49 47.45069 8.55598 1399 ft 16 kts 154°
2026-04-26 09:49 47.44975 8.55669 1400 ft 15 kts 140°
2026-04-26 09:49 47.44953 8.55787 1403 ft 9 kts 96°
2026-04-26 09:50 47.44946 8.55881 1397 ft 9 kts 95°
2026-04-26 09:50 47.44913 8.55952 1396 ft 9 kts 149°
2026-04-26 09:50 47.44859 8.55991 1400 ft 9 kts 155°
2026-04-26 09:50 47.44819 8.56018 1398 ft 2 kts 147°
2026-04-26 09:51 47.44816 8.56042 1399 ft 4 kts 73°
2026-04-26 09:51 47.44833 8.56100 1403 ft 6 kts 64°
2026-04-26 09:51 47.44844 8.56134 1404 ft 2 kts 64°
2026-04-26 09:51 47.44847 8.56143 1403 ft 0 kts 64°